sat.trackr.live / text

‹ back to catalog

STARLINK-30560

NORAD 58038 · 2023-156L

PAYLOAD ACTIVE UNKNOWN

§ Identity

Operator
Country
US
Launch date
2023-10-09
Launch site
AFWTR
Launch vehicle
Mass (kg)
RCS (m²)

Purposes: comms

External: N2YO · Heavens-Above · Gunter

§ Orbital elements

Epoch: 2026-05-25T02:14:10.891104Z

Period
94.11 min
Inclination
53.1606°
Eccentricity
0.0001251
Mean motion
15.30197897 rev/d
Perigee alt
474.4 km
Apogee alt
476.1 km
Semi-major
6,853.4 km
B*
3.9356e-5
RAAN
80.6392°
Arg perigee
84.0562°
Mean anomaly
276.0582°
Rev number
14,800

§ Raw data

STARLINK-305601 58038U 23156L   26145.09318161  .00000807  00000+0  39356-4 0  99922 58038  53.1606  80.6392 0001251  84.0562 276.0582 15.30197897148002

JSON: /api/v1/satellites/58038 · /tle

For live sub-satellite position, see the globe view (requires WebGL).

§ Visibility from observer

Set your observer location to see the next 7 days of passes ≥ 10°. The values pass through the URL so the page stays shareable.

No JS? Fill the form by hand. The geolocation button needs JavaScript.